This is the latest recevied weather packets stored in our database for station/object SP1BMW-13. If no packets are shown the sender has not sent any weather packets the latest 10 day(s).
| Time | Temp. | Humidity | Pressure | Rain* | Wind** | Luminosity | Snow |
|---|---|---|---|---|---|---|---|
| 1788007412 | 24.44° C | 50% | 1009.6 hPa | 0 mm | 1.34 m/s, 312° | 352 W/m² | - |
| 1788007354 | 24.44° C | 50% | 1009.6 hPa | 0 mm | 1.79 m/s, 309° | 345 W/m² | - |
| 1788007292 | 24.44° C | 50% | 1009.5 hPa | 0 mm | 2.24 m/s, 231° | 706 W/m² | - |
| 1788007232 | 23.89° C | 51% | 1009.6 hPa | 0 mm | 2.24 m/s, 259° | 632 W/m² | - |
| 1788007174 | 23.89° C | 52% | 1009.4 hPa | 0 mm | 0.89 m/s, 277° | 580 W/m² | - |
| 1788007112 | 23.89° C | 53% | 1009.5 hPa | 0 mm | 0.45 m/s, 190° | 696 W/m² | - |
| 1788007053 | 23.89° C | 51% | 1009.4 hPa | 0 mm | 1.34 m/s, 124° | 663 W/m² | - |
| 1788006992 | 23.89° C | 51% | 1009.4 hPa | 0 mm | 1.34 m/s, 336° | 513 W/m² | - |
| 1788006932 | 23.89° C | 52% | 1009.4 hPa | 0 mm | 0.89 m/s, 232° | 170 W/m² | - |
| 1788006872 | 23.89° C | 52% | 1009.7 hPa | 0 mm | 1.34 m/s, 251° | 145 W/m² | - |
| 1788006812 | 23.89° C | 52% | 1009.6 hPa | 0 mm | 1.34 m/s, 138° | 143 W/m² | - |
| 1788006752 | 24.44° C | 53% | 1009.5 hPa | 0 mm | 1.34 m/s, 279° | 158 W/m² | - |
| 1788006692 | 24.44° C | 51% | 1009.4 hPa | 0 mm | 0.45 m/s, 185° | 520 W/m² | - |
| 1788006633 | 24.44° C | 53% | 1009.3 hPa | 0 mm | 1.34 m/s, 279° | 139 W/m² | - |
| 1788006572 | 24.44° C | 50% | 1009.7 hPa | 0 mm | 0.45 m/s, 258° | 136 W/m² | - |
| 1788006513 | 24.44° C | 50% | 1009.5 hPa | 0 mm | 1.79 m/s, 171° | 153 W/m² | - |
| 1788006452 | 24.44° C | 50% | 1009.4 hPa | 0 mm | 1.79 m/s, 141° | 420 W/m² | - |
| 1788006394 | 24.44° C | 51% | 1009.5 hPa | 0 mm | 0.89 m/s, 184° | 250 W/m² | - |
| 1788006332 | 24.44° C | 50% | 1009.4 hPa | 0 mm | 0.89 m/s, 158° | 208 W/m² | - |
| 1788006272 | 24.44° C | 51% | 1009.4 hPa | 0 mm | 0.45 m/s, 263° | 264 W/m² | - |
| 1788006213 | 24.44° C | 50% | 1009.4 hPa | 0 mm | 2.68 m/s, 229° | 315 W/m² | - |
| 1788006152 | 24.44° C | 51% | 1009.5 hPa | 0 mm | 0.45 m/s, 248° | 439 W/m² | - |
| 1788006093 | 24.44° C | 50% | 1009.5 hPa | 0 mm | 0.89 m/s, 312° | 342 W/m² | - |
| 1788006033 | 24.44° C | 52% | 1009.4 hPa | 0 mm | 1.34 m/s, 273° | 189 W/m² | - |
| 1788005972 | 24.44° C | 53% | 1009.4 hPa | 0 mm | 0 m/s | 210 W/m² | - |
* Rain latest hour (hover to see other rain measurements)
** Current wind speed in m/s (hover to see current wind gust speed)